This is the latest recevied weather packets stored in our database for station/object KB3KAV. If no packets are shown the sender has not sent any weather packets the latest 10 day(s).
| Time | Temp. | Humidity | Pressure | Rain* | Wind** | Luminosity | Snow |
|---|---|---|---|---|---|---|---|
| 1777722399 | 5° C | 95% | 1042.9 hPa | 0 mm | - | 52 W/m² | - |
| 1777721794 | 5° C | 95% | 1043.2 hPa | 0 mm | - | 55 W/m² | - |
| 1777721190 | 4.44° C | 95% | 1043.2 hPa | 0 mm | - | 54 W/m² | - |
| 1777720591 | 3.89° C | 95% | 1043.4 hPa | 0 mm | - | 51 W/m² | - |
| 1777719986 | 3.89° C | 95% | 1043.4 hPa | 0 mm | - | 32 W/m² | - |
| 1777719380 | 3.89° C | 95% | 1043.1 hPa | 0 mm | - | 26 W/m² | - |
| 1777718780 | 3.89° C | 95% | 1043.1 hPa | 0 mm | - | 24 W/m² | - |
| 1777718175 | 3.89° C | 95% | 1042.8 hPa | 0 mm | - | 18 W/m² | - |
| 1777717575 | 3.89° C | 95% | 1042.6 hPa | 0 mm | - | 11 W/m² | - |
| 1777716976 | 3.89° C | 95% | 1042.4 hPa | 0 mm | - | 6 W/m² | - |
| 1777716372 | 3.89° C | 95% | 1042.5 hPa | 0 mm | - | 0 W/m² | - |
| 1777715768 | 3.89° C | 95% | 1042.4 hPa | 0 mm | - | 0 W/m² | - |
| 1777715167 | 3.89° C | 95% | 1042.2 hPa | 0 mm | - | 0 W/m² | - |
| 1777714564 | 3.89° C | 95% | 1042.1 hPa | 0 mm | - | 0 W/m² | - |
| 1777713959 | 3.89° C | 95% | 1041.9 hPa | 0 mm | - | 0 W/m² | - |
| 1777713358 | 4.44° C | 95% | 1042.1 hPa | 0 mm | - | 0 W/m² | - |
| 1777712758 | 4.44° C | 95% | 1041.9 hPa | 0 mm | - | 0 W/m² | - |
| 1777712157 | 3.89° C | 95% | 1041.6 hPa | 0 mm | - | 0 W/m² | - |
| 1777711556 | 4.44° C | 95% | 1041.7 hPa | 0 mm | - | 0 W/m² | - |
| 1777710955 | 4.44° C | 95% | 1041.7 hPa | 0 mm | - | 0 W/m² | - |
| 1777710354 | 5° C | 95% | 1041.6 hPa | 1.78 mm | - | 0 W/m² | - |
| 1777709755 | 5.56° C | 95% | 1041.7 hPa | 1.27 mm | - | 0 W/m² | - |
| 1777709149 | 5.56° C | 95% | 1041.3 hPa | 1.78 mm | - | 0 W/m² | - |
| 1777708549 | 5.56° C | 95% | 1041 hPa | 0 mm | - | 0 W/m² | - |
| 1777707945 | 6.11° C | 95% | 1040.9 hPa | 4.32 mm | - | 0 W/m² | - |
* Rain latest hour (hover to see other rain measurements)
** Current wind speed in m/s (hover to see current wind gust speed)